Regional Weather Roundup
Issued by NWS Cleveland, OH

Home | Current Version | Previous Version | Text Only | Print | Product List | Glossary Off
Versions: 1 2 3 4 5 6 7 8 9 10 11 12 13 14 15 16 17 18 19 20 21 22 23 24 25 26 27 28 29 30 31 32 33 34 35 36 37 38 39 40 41 42 43 44 45 46 47 48 49 50

000
ASUS41 KCLE 040500
RWRCLE
OHIO REGIONAL WEATHER ROUNDUP
NATIONAL WEATHER SERVICE WILMINGTON, OH
100 AM EDT SAT JUL 04 2015

NOTE: "FAIR" INDICATES FEW OR NO CLOUDS BELOW 12,000 FEET WITH NO
SIGNIFICANT WEATHER AND/OR OBSTRUCTIONS TO VISIBILITY.

OHZ001>008-015>018-024>027-034-035-043-044-040600-
   NORTHWEST OHIO

CITY           SKY/WX    TMP DP  RH WIND       PRES   REMARKS
DEFIANCE       CLEAR     59  55  87 CALM      29.94S
FINDLAY        CLEAR     59  53  80 NW3       29.93S
TOLEDO EXPRESS CLEAR     56  52  86 CALM      29.94R
TOLEDO EXEC    CLEAR     60  53  77 CALM      29.94S
LIMA           CLEAR     59  55  87 N3        29.94S
$$

OHZ009>014-019>023-028>033-038-089-040600-
   NORTHEAST OHIO

CITY           SKY/WX    TMP DP  RH WIND       PRES   REMARKS
CLE-HOPKINS    CLEAR     63  53  70 N3        29.92S
CLE-LAKEFRONT  CLEAR     65  53  65 NE6       29.90S
CUY CO. ARPT   NOT AVBL
LORAIN-ELYRIA  CLEAR     58  55  90 CALM      29.92S
ASHTABULA      MOCLDY    58  53  84 CALM      29.92S
AKRON-CANTON   MOCLDY    65  55  70 NE6       29.91R
WOOSTER        NOT AVBL
MANSFIELD      CLEAR     59  56  89 NW5       29.93R
YOUNGSTOWN     MOCLDY    63  57  81 CALM      29.90S
$$

OHZ042-051>053-060>062-070>072-077>081-040600-
  SOUTHWEST OHIO

CITY           SKY/WX    TMP DP  RH WIND       PRES   REMARKS
CINC-COVINGTON CLOUDY    69  63  81 N5        29.91S
CINC-LUNKEN    CLOUDY    68  65  90 CALM      29.91R
HAMILTON       CLOUDY    66  65  96 CALM      29.92S FOG
DAYTON         NOT AVBL
WRIGHT-PAT AFB CLEAR     65  64  96 S1        29.91S FOG
DAYTON GENERAL PTCLDY    63  62  97 CALM      29.91S FOG
WILMINGTON     PTCLDY    63  61  93 CALM      29.92R FOG
$$

OHZ036-037-039>041-045>050-054>059-063>069-073>076-082>088-040600-
  CENTRAL AND SOUTHEAST OHIO

CITY           SKY/WX    TMP DP  RH WIND       PRES   REMARKS
COLUMBUS       CLOUDY    65  64  97 CALM      29.89S
OSU AIRPORT    PTCLDY    65  60  84 CALM      29.91R
BOLTON FIELD   NOT AVBL
RICKENBACK AFB NOT AVBL
NEWARK         FOG       63  61  93 CALM      29.89F VSB 3/4
MARION         CLEAR     61  55  81 NW6       29.92S
LANCASTER      FOG       61  59  93 CALM      29.90S VSB 1/4
ZANESVILLE     MOCLDY    65  62  90 CALM      29.88S FOG
NEW PHILLY     MOCLDY    66  64  93 NW3       29.89F
$$



USA.gov is the U.S. government's official web portal to all federal, state and local government web resources and services.